Lapse_Rate
7.0 6.5 6.5 6.5 6.5 6.5 6.5 6.5 6.5 6.5 6.5 6.5 6.5 6.5 6.5 7.1 7.3 7.2 7.5 7.6 7.7 6.8 4.2 3.8 2.7 2.3 2.9 3.0 3.8 3.5 3.3 3.2 4.5 5.5 5.3 3.9 2.5 1.9 0.9 0.2 0.5 0.9 1.3 1.6
6.5 6.5 6.5 6.5 6.5 6.5 6.5 6.5 6.5 6.5 6.5 6.5 6.5 6.5 6.5 6.9 7.0 7.3 7.5 7.6 7.7 7.3 6.0 4.3 3.7 3.1 2.6 2.4 2.5 2.8 2.9 3.4 3.4 3.3 2.5 2.3 1.7 1.3 0.6 -0.1 -0.6 -0.5 -0.1 0.2
6.5 6.5 6.7 6.5 6.5 6.5 6.5 6.5 6.5 6.5 6.5 6.5 6.5 6.5 6.5 6.6 7.1 7.4 7.7 7.9 7.9 7.9 6.8 4.9 3.7 3.0 2.7 1.8 1.6 1.4 1.5 1.5 1.9 1.5 1.2 0.8 1.0 1.4 1.7 1.0 0.0 -1.0 -0.5 -0.0
6.5 6.7 6.5 6.5 6.5 6.5 6.5 6.5 6.5 6.5 6.5 6.5 6.5 6.5 6.5 6.5 6.5 6.8 7.3 7.7 7.8 7.7 6.0 4.5 3.7 3.0 1.8 1.0 1.0 1.2 1.2 1.0 1.2 1.4 2.1 2.6 2.3 0.8 0.9 0.7 0.2 -0.3 -0.3 -0.1
6.5 6.5 6.5 6.5 6.5 6.5 6.5 6.5 6.5 6.5 6.5 6.5 6.5 6.5 6.5 6.5 6.5 6.5 7.1 7.5 7.8 8.0 6.9 5.1 3.8 2.2 1.3 1.3 1.2 1.2 1.0 0.9 1.1 1.5 1.8 1.7 0.8 1.1 1.6 1.5 1.3 1.0 0.6 0.6
6.5 6.9 6.6 6.5 6.5 6.5 6.5 6.5 6.5 6.5 6.5 6.5 6.5 6.5 6.5 6.5 6.5 6.5 7.0 7.5 7.7 7.9 6.5 5.0 3.5 2.1 1.8 1.2 1.2 1.4 1.2 0.8 1.2 1.4 1.8 1.9 1.5 1.5 1.7 1.7 1.6 1.3 1.5 1.1
6.5 6.5 6.6 6.7 6.5 6.5 6.5 6.5 6.5 6.5 6.5 6.5 6.5 6.5 6.5 6.5 6.5 6.6 6.8 7.4 7.7 7.7 6.0 4.5 3.4 2.8 2.3 1.9 1.4 1.6 1.7 0.8 1.0 1.0 1.3 1.4 1.5 1.8 1.7 1.6 1.8 2.0 2.2 2.1
6.5 6.5 6.5 6.5 6.5 6.5 6.5 6.5 6.5 6.5 6.5 6.5 6.5 6.5 6.5 6.5 6.9 7.1 7.4 7.5 7.7 7.7 6.6 5.0 4.2 3.4 2.7 2.1 2.0 1.5 1.2 0.8 1.2 1.1 0.7 1.0 1.5 2.0 2.0 2.4 2.7 2.8 2.7 2.4
6.5 6.5 6.5 6.5 6.5 6.5 6.5 6.5 6.5 6.5 6.5 6.5 6.5 6.5 6.5 6.5 6.5 6.9 7.1 7.4 7.4 7.5 5.8 4.7 4.0 3.4 3.1 2.7 2.4 2.1 1.7 1.6 1.7 1.6 1.6 1.6 1.9 2.3 2.4 2.4 2.6 2.8 2.5 2.2
6.5 6.5 6.5 6.5 6.6 6.6 6.5 6.5 6.5 6.5 6.5 6.5 6.5 6.5 6.5 6.5 6.5 6.5 6.7 7.1 7.4 7.5 6.2 5.4 4.6 4.0 3.6 3.3 2.5 2.1 2.7 2.9 2.2 2.2 2.5 2.5 2.5 2.7 2.7 3.0 3.2 3.0 2.5 2.6
6.5 6.5 6.5 6.5 6.5 6.5 6.5 6.5 6.5 6.5 6.5 6.5 6.5 6.5 6.5 6.5 6.5 6.5 6.8 7.2 7.4 7.6 6.6 5.2 4.8 4.2 3.6 3.3 2.8 2.9 3.1 3.0 2.7 2.8 2.7 2.9 2.8 3.1 3.1 3.6 3.2 3.0 2.6 2.6
6.5 6.5 6.5 6.5 6.5 6.5 6.5 6.5 6.5 6.5 6.5 6.5 6.5 6.5 6.5 6.5 6.6 6.9 6.9 7.2 7.6 7.6 6.6 5.7 5.0 4.2 3.6 3.3 3.3 3.4 3.6 3.5 3.7 3.4 3.0 3.3 3.2 3.3 3.6 3.7 3.2 2.6 2.8 2.2
6.5 6.5 6.5 6.5 6.5 6.5 6.5 6.5 6.5 6.5 6.5 6.5 6.5 6.5 6.5 6.6 6.6 6.9 7.0 7.2 7.5 7.2 6.8 5.9 5.4 4.6 4.2 4.0 3.6 3.8 3.8 3.8 3.8 3.5 3.6 3.6 3.7 3.8 3.9 3.5 2.9 2.5 2.5 2.1
6.2 6.5 6.5 6.5 6.5 6.5 6.5 6.5 6.5 6.5 6.5 6.5 6.5 6.5 6.5 6.5 6.5 6.8 7.0 7.1 7.2 7.0 7.0 6.2 6.0 4.9 5.1 4.5 4.0 4.4 4.2 4.1 4.0 3.8 3.9 3.9 4.1 4.1 3.9 3.3 2.6 2.1 1.7 1.7
6.5 6.5 6.5 6.5 6.5 6.5 6.5 6.5 6.5 6.5 6.5 6.5 6.5 6.5 6.5 6.5 6.5 6.8 6.7 7.3 7.4 7.3 7.2 6.5 6.0 5.6 5.1 3.9 4.1 4.6 4.8 4.1 3.7 3.7 4.2 4.3 4.2 3.8 3.1 2.0 1.1 0.4 0.5 0.8
6.5 6.5 6.5 6.5 6.5 6.5 6.5 6.5 6.5 6.5 6.5 6.5 6.5 6.5 6.5 6.7 6.9 6.9 7.0 7.2 7.1 6.7 6.5 6.3 5.4 4.9 3.6 2.9 3.6 3.6 4.3 3.6 3.8 4.3 4.1 4.6 3.4 1.7 0.6 0.4 0.0 -0.0 0.0 0.0
6.5 6.5 6.5 6.5 6.5 6.5 6.5 6.5 6.5 6.5 6.5 6.5 6.5 6.5 6.5 6.5 6.5 6.7 7.0 6.9 6.1 6.6 6.1 5.2 4.8 4.3 3.1 3.0 3.3 2.9 3.1 4.3 2.7 2.3 2.2 1.6 1.3 0.6 0.5 0.0 -0.3 -0.1 -0.0 -0.3
6.5 6.5 6.5 6.5 6.5 6.5 6.5 6.5 6.5 6.5 6.5 6.5 6.5 6.5 6.4 6.5 6.2 5.8 5.2 4.8 5.8 5.4 4.9 5.0 4.8 4.3 3.4 2.8 2.3 3.1 3.8 3.1 2.1 2.1 1.3 0.8 0.7 0.5 -0.3 -0.8 -0.6 -0.3 -0.4 -0.8
6.5 6.5 6.5 6.5 6.5 6.5 6.5 6.5 6.5 6.5 6.5 6.5 6.5 6.5 6.6 5.4 6.1 6.5 4.0 4.1 4.7 3.9 4.9 4.7 4.7 4.2 3.0 2.9 3.1 2.0 1.1 1.8 2.3 2.1 1.2 0.6 0.1 -0.7 -0.9 -1.4 -0.9 -0.6 -0.9 -1.0
6.5 6.5 6.5 6.5 6.5 6.5 6.5 6.5 6.8 6.5 6.5 6.5 6.2 6.5 6.5 6.4 6.5 6.5 3.3 3.1 3.3 3.6 3.6 3.3 3.1 2.3 2.6 2.5 1.5 1.1 1.4 1.1 1.2 1.7 1.5 0.7 -0.6 -1.4 -1.8 -1.3 -1.7 -1.3 -1.6 -1.2
6.5 6.5 6.5 6.5 6.5 6.5 6.5 6.5 6.3 6.5 6.5 5.6 5.6 5.3 6.4 6.5 6.3 4.2 2.9 3.6 3.8 3.4 3.1 2.6 2.5 2.4 2.8 1.5 0.5 1.4 1.2 1.0 2.0 1.1 -0.0 -1.1 -1.6 -2.5 -2.2 -2.4 -2.2 -2.3 -2.1 -2.0
6.5 6.5 6.5 6.5 6.5 6.5 6.7 6.6 6.5 6.3 4.6 2.8 4.5 3.6 4.7 4.8 3.9 3.4 3.6 3.8 3.3 3.5 3.0 3.0 2.5 2.1 2.2 1.0 0.7 1.6 1.3 2.5 -0.3 -0.9 -1.6 -2.5 -3.7 -3.2 -3.9 -4.0 -3.2 -3.3 -3.0 -3.2
6.5 6.5 6.5 6.5 6.5 6.6 6.6 6.2 4.8 4.3 3.0 2.3 2.7 2.2 3.6 4.2 4.2 3.9 3.8 3.5 3.6 3.8 3.0 2.3 2.0 1.6 1.4 0.4 0.6 1.7 2.2 -1.2 -2.5 -2.7 -3.2 -4.3 -4.9 -4.4 -4.7 -4.1 -2.9 -2.1 -2.4 -1.8
6.5 6.6 6.5 6.5 6.5 6.5 6.4 3.4 3.6 3.4 3.1 2.4 3.0 2.1 2.6 3.2 4.0 3.8 4.1 3.9 3.5 2.2 1.7 0.7 0.4 0.2 0.7 0.2 -0.6 0.9 -1.8 -2.8 -3.6 -3.1 -4.0 -4.9 -5.4 -4.7 -5.0 -3.1 -2.0 -1.4 -0.6 -0.3
6.5 6.5 6.5 6.5 6.5 6.6 6.1 5.1 4.0 3.5 2.9 2.5 2.2 2.6 3.3 3.0 2.4 3.0 2.6 1.9 2.1 2.5 1.2 0.5 0.7 0.9 1.3 0.4 -0.4 -1.3 -2.8 -3.8 -3.0 -3.2 -3.6 -3.4 -3.2 -3.8 -2.2 -2.1 -0.8 -0.7 -0.2 0.2
6.6 6.5 6.5 6.5 6.3 6.1 5.7 4.2 3.9 3.9 3.5 3.1 2.7 1.9 1.6 2.5 3.1 2.5 2.2 2.2 2.1 2.0 1.2 0.2 0.1 -0.2 0.0 -1.5 -1.7 -3.7 -4.7 -4.3 -3.3 -3.1 -3.3 -2.3 -1.6 -1.7 -1.2 -0.5 -0.2 -0.2 0.4 0.9
Wind_Speed
2 7 12 18 16 5 1 4 8 3 1 3 11 13 12 6 5 7 6 6 6 6 5 6 7 7 7 8 9 9 9 8 6 7 8 8 10 9 13 17 19 19 19 19
4 13 15 2 9 8 6 9 13 5 3 5 9 14 15 10 7 7 9 9 9 8 7 7 8 8 8 9 9 10 10 10 8 6 7 7 7 9 13 16 19 20 20 19
13 3 7 9 8 11 11 13 12 9 2 4 6 15 19 6 6 7 8 10 11 12 11 9 8 8 8 9 8 9 11 12 11 12 12 12 12 12 9 9 12 18 20 20
9 4 7 11 12 13 15 13 10 7 4 10 3 8 5 8 10 11 12 13 13 12 10 9 9 9 8 7 6 8 9 11 10 12 10 11 9 10 8 8 11 15 18 19
6 10 11 11 8 12 6 5 10 8 11 6 8 7 4 3 11 15 15 14 13 11 10 10 9 7 6 5 6 8 11 11 11 12 11 11 13 9 8 7 10 12 15 16
5 2 4 5 3 4 13 7 5 2 3 9 16 13 6 7 8 12 16 16 16 14 12 9 7 6 6 5 6 8 10 11 10 12 13 13 14 11 9 8 7 6 8 11
4 9 4 4 5 3 6 10 4 5 6 8 2 11 12 8 8 9 22 21 19 16 14 13 11 9 7 7 7 8 10 11 10 13 12 12 12 12 11 8 6 7 6 6
10 8 15 13 18 9 15 18 6 7 6 3 2 8 5 1 4 5 15 19 19 18 15 14 13 11 10 9 8 9 10 11 10 12 12 11 10 7 7 7 6 6 6 6
10 7 3 4 3 13 8 11 3 4 1 3 6 4 6 4 5 5 12 17 19 19 17 17 15 13 12 11 11 11 11 10 10 11 10 10 9 9 8 8 8 6 8 7
4 5 2 3 4 1 6 11 5 5 5 6 4 5 8 9 13 11 14 18 19 18 18 16 14 13 12 11 10 10 10 11 10 10 9 8 9 9 9 8 7 7 7 6
6 4 3 5 12 18 7 7 6 3 4 4 3 5 5 11 15 17 17 19 21 21 19 17 15 14 13 12 12 11 10 11 10 9 9 9 8 8 9 6 7 7 7 5
9 3 6 11 0 2 12 11 15 7 6 4 2 6 5 4 7 12 15 17 19 19 18 17 16 15 14 14 13 12 12 11 11 10 10 10 9 8 8 7 7 6 6 4
12 4 4 4 4 2 8 10 11 8 2 11 7 5 3 3 5 8 12 15 17 19 19 17 17 16 15 15 13 14 13 13 12 12 12 10 10 10 9 8 8 6 5 4
15 9 13 16 6 10 11 16 17 17 11 14 19 8 7 9 10 10 12 14 18 19 19 18 16 16 15 14 14 14 14 13 13 12 12 12 12 11 9 8 7 6 4 3
12 13 21 26 15 7 6 17 22 25 31 16 21 18 15 17 15 16 16 14 17 19 19 19 17 16 15 14 15 14 14 15 14 14 14 14 12 10 9 7 6 6 4 3
3 12 17 19 16 12 10 15 27 29 27 24 15 15 8 14 7 10 13 16 18 19 18 16 15 14 15 15 15 14 15 14 14 15 14 12 10 9 8 7 6 6 5 5
12 12 7 18 20 3 7 32 20 21 21 23 21 15 7 7 12 13 14 16 18 17 17 15 14 13 12 14 13 15 14 13 12 12 9 9 9 9 9 8 7 7 6 4
7 10 5 3 7 10 7 1 17 18 11 11 1 4 10 6 6 5 8 13 12 14 13 10 9 9 9 9 11 11 11 11 11 11 9 9 10 10 9 9 8 6 5 5
2 8 4 5 9 7 1 4 8 12 12 10 12 5 5 5 4 4 6 6 10 11 9 7 8 8 8 10 10 9 9 9 9 11 11 11 11 10 10 9 8 6 5 5
1 3 7 4 6 10 2 5 3 3 6 7 10 9 9 7 6 7 10 8 7 7 6 7 7 6 6 7 8 8 8 9 11 11 12 11 11 10 10 9 7 5 5 6
5 3 12 7 6 4 2 5 3 7 3 3 8 9 12 7 4 4 10 7 5 5 5 4 6 7 8 7 8 8 7 10 11 7 8 9 10 9 9 8 6 6 6 5
10 9 5 3 5 10 6 6 8 3 3 4 5 8 10 5 7 8 8 7 7 6 5 7 6 8 6 7 8 7 9 10 6 7 8 9 9 8 7 7 6 6 6 6
5 4 5 9 4 2 11 3 3 2 5 5 6 7 8 9 7 9 7 6 6 6 5 4 6 5 4 6 9 9 10 7 7 7 7 8 8 7 7 8 7 6 6 6
5 1 0 2 2 2 10 2 1 3 4 4 3 5 8 9 8 8 7 7 6 5 5 4 4 6 8 8 9 11 4 6 7 8 8 7 8 8 7 6 6 6 6 6
1 7 5 1 1 3 4 5 6 6 3 5 4 6 9 6 6 7 6 5 5 5 3 3 6 7 11 6 8 5 6 7 7 7 7 8 7 8 7 7 7 7 7 7
5 6 5 3 7 4 9 16 12 8 8 7 7 4 4 7 8 7 6 6 5 6 4 5 7 7 6 4 4 4 6 8 8 8 7 7 7 6 6 6 6 14 16 15
Wind_Direction
146 205 215 214 214 238 178 223 248 185 163 253 245 257 206 200 192 186 171 157 132 98 71 59 57 62 79 70 75 70 75 74 92 89 85 74 69 65 61 56 50 47 43 43
159 229 230 129 193 201 220 243 248 266 198 227 253 254 257 201 215 205 180 167 149 136 116 85 68 67 73 79 82 78 73 69 76 86 92 85 86 70 69 63 56 53 52 53
208 173 185 174 170 196 225 227 237 256 143 218 277 263 246 203 195 181 179 164 159 155 140 122 99 83 81 75 80 96 97 92 88 98 104 106 102 89 73 58 57 53 57 55
238 163 154 186 210 201 235 219 235 236 238 262 218 281 242 208 205 197 183 181 169 163 149 136 127 106 85 74 81 90 98 102 105 118 113 104 100 99 83 79 72 63 57 59
203 180 190 204 210 187 245 148 211 224 239 269 209 262 236 178 225 206 193 186 176 168 160 147 132 112 100 101 94 92 94 88 91 96 100 103 103 104 106 97 87 75 66 61
273 48 214 212 96 180 134 101 79 105 206 250 231 217 215 204 217 178 186 187 179 172 167 154 141 137 121 104 101 101 98 94 97 100 103 109 117 120 118 114 98 84 72 63
214 218 182 185 140 88 184 164 200 225 210 247 142 209 243 212 173 185 185 184 180 176 174 168 167 166 154 144 129 118 113 108 110 107 105 108 112 115 115 115 110 105 85 67
201 228 191 193 215 183 195 189 197 216 205 207 142 226 242 334 119 133 185 177 173 177 178 179 176 174 170 167 156 141 135 127 131 123 119 120 116 109 101 100 97 91 89 78
192 242 177 193 143 173 180 212 185 104 173 260 204 241 238 167 184 166 167 174 181 182 184 185 181 180 176 179 174 160 153 146 142 130 130 123 119 118 117 115 113 107 107 105
202 245 249 145 138 226 201 146 176 219 216 232 206 247 225 202 203 179 181 190 187 186 187 187 185 182 182 182 178 170 165 160 148 142 136 129 127 125 127 129 125 124 124 124
146 222 137 148 209 190 169 188 213 222 219 227 256 233 217 197 189 188 194 194 189 188 189 188 188 186 186 182 180 176 177 167 161 157 146 147 146 142 144 145 143 139 136 126
192 132 199 205 56 296 232 217 195 207 190 238 296 250 161 163 175 193 190 190 193 193 191 191 189 188 187 187 182 182 185 180 175 169 166 166 157 164 163 158 150 150 142 123
168 187 229 248 210 186 219 203 222 230 55 209 197 227 167 173 218 203 191 185 189 191 193 193 194 193 192 192 188 188 191 188 181 179 179 176 178 180 176 169 163 153 148 128
162 169 205 227 229 156 205 205 202 204 228 225 231 232 198 201 202 199 203 192 190 192 194 197 198 200 200 195 192 193 193 193 186 187 189 190 190 190 182 171 163 163 161 148
184 216 216 237 249 213 220 205 198 209 221 213 243 226 198 191 196 196 199 189 186 194 198 200 200 201 199 199 198 197 200 193 189 192 197 202 195 187 179 166 166 163 173 179
220 236 220 239 226 224 235 229 208 213 222 234 241 232 194 194 165 180 189 183 194 199 199 198 200 199 202 203 202 198 201 196 193 198 205 202 189 177 176 171 177 181 188 198
182 212 185 233 225 191 267 233 214 217 222 221 220 236 138 171 193 198 189 191 198 195 191 189 191 201 204 205 199 200 196 194 192 195 196 183 177 184 187 182 187 198 202 203
177 202 198 230 118 219 266 276 212 211 198 213 222 165 167 178 184 166 186 192 189 189 182 186 196 195 197 194 199 198 193 187 187 198 195 184 185 192 187 189 199 200 203 222
160 173 165 194 211 313 239 195 173 185 230 193 215 147 135 107 110 206 193 184 189 182 180 187 186 185 180 193 191 177 169 174 186 202 201 193 190 189 190 197 198 200 210 225
212 253 211 150 216 226 239 168 183 158 245 192 178 147 150 149 187 220 175 171 158 156 163 181 176 172 180 178 158 164 179 180 204 205 205 191 184 186 187 192 190 195 213 231
160 178 218 190 219 273 205 151 178 172 237 135 162 158 160 187 217 129 151 163 156 164 176 152 173 185 197 157 157 186 170 202 214 187 171 176 183 179 180 177 185 195 213 231
175 170 187 159 222 247 140 104 180 170 13 130 143 168 179 137 145 145 148 151 163 179 179 193 187 208 198 165 170 186 195 217 161 170 175 178 168 170 170 174 184 203 214 230
210 210 185 197 186 109 173 66 160 181 154 189 162 169 159 147 172 162 169 165 178 194 205 197 205 215 187 180 190 195 220 162 157 165 173 166 164 172 170 182 197 211 216 234
227 162 66 173 115 155 182 49 120 207 190 152 160 138 154 171 173 177 161 171 178 192 210 190 189 223 224 204 203 224 138 149 158 174 173 168 176 183 185 198 209 217 222 229
145 141 136 8 128 114 201 224 201 202 166 140 138 159 182 156 165 172 186 191 198 212 204 196 211 227 238 191 203 195 167 155 178 178 177 182 191 195 198 213 216 223 233 231
188 153 172 193 182 164 198 210 198 194 197 187 171 171 184 175 194 182 205 204 197 210 193 210 221 228 235 201 203 177 169 169 170 181 182 191 195 198 208 216 231 235 237 235